TimeMDT,TemperatureF,Dew PointF,Humidity,Sea Level PressureIn,VisibilityMPH,Wind Direction,Wind SpeedMPH,Gust SpeedMPH,PrecipitationIn,Events,Conditions,WindDirDegrees,DateUTC
12:53 AM,24.1,19.0,81,29.89,10.0,South,5.8,-,N/A,,Clear,180,2013-04-11 06:53:00
1:53 AM,21.9,17.1,82,29.86,10.0,Calm,Calm,-,N/A,,Clear,0,2013-04-11 07:53:00
2:53 AM,21.0,16.0,81,29.83,10.0,North,4.6,-,N/A,,Clear,10,2013-04-11 08:53:00
3:53 AM,19.0,12.0,74,29.81,10.0,NE,8.1,-,N/A,,Clear,50,2013-04-11 09:53:00
4:53 AM,21.0,12.0,68,29.79,10.0,NNE,3.5,-,N/A,,Clear,30,2013-04-11 10:53:00
5:53 AM,18.0,10.9,74,29.81,10.0,NNE,3.5,-,N/A,,Clear,30,2013-04-11 11:53:00
6:53 AM,21.9,17.1,82,29.82,10.0,SSW,3.5,-,N/A,,Clear,210,2013-04-11 12:53:00
7:53 AM,27.0,21.0,78,29.82,10.0,SW,8.1,-,N/A,,Clear,230,2013-04-11 13:53:00
8:53 AM,36.0,19.9,52,29.80,10.0,West,6.9,-,N/A,,Clear,260,2013-04-11 14:53:00
9:53 AM,46.0,19.0,34,29.77,10.0,WNW,12.7,21.9,N/A,,Clear,300,2013-04-11 15:53:00
11:53 AM,54.0,16.0,22,29.74,10.0,North,9.2,24.2,0.00,,Clear,360,2013-04-11 17:53:00
12:53 PM,57.0,16.0,20,29.70,10.0,NW,18.4,25.3,N/A,,Clear,320,2013-04-11 18:53:00
1:53 PM,60.1,16.0,18,29.70,10.0,North,17.3,23.0,N/A,,Clear,350,2013-04-11 19:53:00
2:53 PM,57.0,16.0,20,29.71,10.0,NNW,6.9,-,N/A,,Mostly Cloudy,330,2013-04-11 20:53:00
3:53 PM,55.9,16.0,21,29.71,10.0,North,4.6,-,N/A,,Overcast,10,2013-04-11 21:53:00
4:53 PM,59.0,18.0,20,29.69,10.0,WNW,20.7,26.5,N/A,,Overcast,290,2013-04-11 22:53:00
5:53 PM,57.9,19.0,22,29.72,10.0,NW,11.5,-,N/A,,Mostly Cloudy,320,2013-04-11 23:53:00
6:53 PM,54.0,19.0,25,29.73,10.0,WNW,12.7,-,N/A,,Clear,300,2013-04-12 00:53:00
7:53 PM,48.0,19.9,33,29.74,10.0,West,6.9,-,N/A,,Clear,280,2013-04-12 01:53:00
8:53 PM,46.0,21.9,39,29.75,10.0,NW,8.1,-,N/A,,Scattered Clouds,320,2013-04-12 02:53:00
9:53 PM,45.0,24.1,44,29.73,10.0,WNW,8.1,-,N/A,,Mostly Cloudy,300,2013-04-12 03:53:00
10:53 PM,42.1,28.0,58,29.74,10.0,North,10.4,-,N/A,,Clear,350,2013-04-12 04:53:00
11:53 PM,43.0,28.0,56,29.74,10.0,NE,13.8,-,N/A,,Overcast,40,2013-04-12 05:53:00